timestamp,wind_dir_avg,wind_spd_max_dir,wind_spd_avg,wind_spd_gust,battery_voltage,lat,long
2017-10-05 00:00:00+00:00,252.0,260.0,5.63,6.74,12.7,47.59359,-54.27349
2017-10-05 00:10:00+00:00,244.0,251.0,5.93,7.52,12.6,47.59359,-54.27349
2017-10-05 00:20:00+00:00,246.0,248.0,6.22,6.99,12.7,47.59359,-54.27349
2017-10-05 00:30:00+00:00,253.0,254.0,5.58,6.19,12.7,47.59359,-54.27349
2017-10-05 00:40:00+00:00,245.0,244.0,5.37,6.44,12.7,47.59359,-54.27349
2017-10-05 00:50:00+00:00,256.0,259.0,5.41,5.96,12.7,47.59359,-54.27349
2017-10-05 01:00:00+00:00,245.0,239.0,4.21,4.98,12.6,47.59359,-54.27349
2017-10-05 01:10:00+00:00,241.0,245.0,3.89,4.95,12.6,47.59359,-54.27349
2017-10-05 01:20:00+00:00,255.0,253.0,4.52,4.9,12.7,47.59359,-54.27349
2017-10-05 01:30:00+00:00,257.0,263.0,4.36,4.81,12.7,47.59359,-54.27349
2017-10-05 01:40:00+00:00,260.0,263.0,4.25,4.79,12.7,47.59359,-54.27349
2017-10-05 01:50:00+00:00,257.0,253.0,3.9,4.35,12.7,47.59359,-54.27349
2017-10-05 02:00:00+00:00,267.0,265.0,4.87,5.83,12.6,47.59359,-54.27349
2017-10-05 02:10:00+00:00,263.0,266.0,4.31,4.97,12.6,47.59359,-54.27349
2017-10-05 02:20:00+00:00,265.0,264.0,5.29,6.45,12.7,47.59359,-54.27349
2017-10-05 02:30:00+00:00,239.0,241.0,3.93,4.49,12.7,47.59359,-54.27349
2017-10-05 02:40:00+00:00,230.0,232.0,4.56,4.96,12.7,47.59359,-54.27349
2017-10-05 02:50:00+00:00,239.0,243.0,3.94,4.53,12.7,47.59359,-54.27349
2017-10-05 03:00:00+00:00,265.0,264.0,4.78,5.27,12.6,47.59359,-54.27349
2017-10-05 03:10:00+00:00,254.0,262.0,3.79,4.74,12.6,47.59359,-54.27349
2017-10-05 03:20:00+00:00,257.0,253.0,4.41,5.36,12.6,47.59359,-54.27349
2017-10-05 03:30:00+00:00,257.0,280.0,4.05,5.94,12.6,47.59359,-54.27349
2017-10-05 03:40:00+00:00,258.0,269.0,3.45,4.64,12.7,47.59359,-54.27349
2017-10-05 03:50:00+00:00,264.0,266.0,4.13,5.58,12.7,47.59359,-54.27349
2017-10-05 04:00:00+00:00,281.0,287.0,6.67,7.3,12.6,47.59359,-54.27349
2017-10-05 04:10:00+00:00,279.0,283.0,6.66,7.66,12.6,47.59359,-54.27349
2017-10-05 04:20:00+00:00,258.0,259.0,5.84,7.45,12.6,47.59359,-54.27349
2017-10-05 04:30:00+00:00,253.0,249.0,5.07,5.82,12.6,47.59359,-54.27349
2017-10-05 04:40:00+00:00,267.0,264.0,4.44,5.6,12.6,47.59359,-54.27349
2017-10-05 04:50:00+00:00,262.0,255.0,5.81,6.76,12.6,47.59359,-54.27349
2017-10-05 05:00:00+00:00,241.0,234.0,4.48,5.46,12.6,47.59359,-54.27349
2017-10-05 05:10:00+00:00,244.0,243.0,4.71,5.49,12.6,47.59359,-54.27349
2017-10-05 05:20:00+00:00,241.0,237.0,5.32,6.31,12.6,47.59359,-54.27349
2017-10-05 05:30:00+00:00,241.0,247.0,5.52,6.5,12.6,47.59359,-54.27349
2017-10-05 05:40:00+00:00,240.0,229.0,5.6,6.92,12.6,47.59359,-54.27349
2017-10-05 05:50:00+00:00,243.0,239.0,6.4,7.69,12.6,47.59359,-54.27349
2017-10-05 06:00:00+00:00,248.0,255.0,4.59,5.57,12.6,47.59359,-54.27349
2017-10-05 06:10:00+00:00,231.0,232.0,5.1,6.21,12.6,47.59359,-54.27349
2017-10-05 06:20:00+00:00,233.0,233.0,5.81,7.01,12.6,47.59359,-54.27349
2017-10-05 06:30:00+00:00,243.0,240.0,4.31,5.15,12.6,47.59359,-54.27349
2017-10-05 06:40:00+00:00,235.0,233.0,5.6,6.76,12.6,47.59359,-54.27349
2017-10-05 06:50:00+00:00,231.0,230.0,5.84,6.46,12.6,47.59359,-54.27349
2017-10-05 07:00:00+00:00,243.0,242.0,5.42,6.2,12.6,47.59359,-54.27349
2017-10-05 07:10:00+00:00,232.0,233.0,5.38,6.21,12.5,47.59359,-54.27349
2017-10-05 07:20:00+00:00,233.0,231.0,8.42,9.31,12.6,47.59359,-54.27349
2017-10-05 07:30:00+00:00,228.0,233.0,8.33,9.83,12.6,47.59359,-54.27349
2017-10-05 07:40:00+00:00,233.0,237.0,7.01,8.06,12.6,47.59359,-54.27349
2017-10-05 07:50:00+00:00,223.0,226.0,6.18,7.19,12.6,47.59359,-54.27349
2017-10-05 08:00:00+00:00,226.0,229.0,7.38,8.2,12.6,47.59359,-54.27349
2017-10-05 08:10:00+00:00,227.0,222.0,7.73,9.37,12.5,47.59359,-54.27349
2017-10-05 08:20:00+00:00,225.0,228.0,7.98,9.1,12.6,47.59359,-54.27349
2017-10-05 08:30:00+00:00,222.0,218.0,10.42,11.12,12.6,47.59359,-54.27349
2017-10-05 08:40:00+00:00,231.0,235.0,7.8,8.83,12.6,47.59359,-54.27349
2017-10-05 08:50:00+00:00,232.0,229.0,5.98,6.75,12.6,47.59359,-54.27349
2017-10-05 09:00:00+00:00,232.0,235.0,7.09,8.2,12.6,47.59359,-54.27349
2017-10-05 09:10:00+00:00,234.0,235.0,6.79,7.81,12.5,47.59359,-54.27349
2017-10-05 09:20:00+00:00,224.0,217.0,6.23,6.84,12.6,47.59359,-54.27349
2017-10-05 09:30:00+00:00,227.0,229.0,8.34,9.51,12.6,47.59359,-54.27349
2017-10-05 09:40:00+00:00,227.0,228.0,9.32,10.13,12.6,47.59359,-54.27349
2017-10-05 09:50:00+00:00,239.0,240.0,9.3,10.9,12.6,47.59359,-54.27349
2017-10-05 10:00:00+00:00,240.0,239.0,10.29,12.72,12.6,47.59359,-54.27349
2017-10-05 10:10:00+00:00,232.0,233.0,10.05,12.12,12.5,47.59359,-54.27349
2017-10-05 10:20:00+00:00,233.0,234.0,9.77,11.73,12.6,47.59359,-54.27349
2017-10-05 10:30:00+00:00,231.0,232.0,10.5,11.89,12.6,47.59359,-54.27349
2017-10-05 10:40:00+00:00,238.0,239.0,9.85,11.21,12.6,47.59359,-54.27349
2017-10-05 10:50:00+00:00,235.0,240.0,10.44,11.48,12.6,47.59359,-54.27349
2017-10-05 11:00:00+00:00,235.0,233.0,9.02,10.06,12.6,47.59359,-54.27349
2017-10-05 11:10:00+00:00,229.0,228.0,9.05,10.74,12.6,47.59359,-54.27349
2017-10-05 11:20:00+00:00,230.0,234.0,9.76,11.79,12.6,47.59359,-54.27349
2017-10-05 11:30:00+00:00,232.0,238.0,9.69,11.24,12.7,47.59359,-54.27349
2017-10-05 11:40:00+00:00,228.0,233.0,9.98,11.89,12.8,47.59359,-54.27349
2017-10-05 11:50:00+00:00,233.0,235.0,9.29,11.39,12.8,47.59359,-54.27349
2017-10-05 12:00:00+00:00,232.0,230.0,9.33,11.28,12.8,47.59359,-54.27349
2017-10-05 12:10:00+00:00,229.0,227.0,8.48,10.6,12.7,47.59359,-54.27349
2017-10-05 12:20:00+00:00,223.0,221.0,9.89,11.69,13.0,47.59359,-54.27349
2017-10-05 12:30:00+00:00,208.0,208.0,12.2,13.94,13.3,47.59359,-54.27349
2017-10-05 12:40:00+00:00,229.0,231.0,10.63,12.5,13.4,47.59359,-54.27349
2017-10-05 12:50:00+00:00,227.0,229.0,12.34,14.78,13.4,47.59359,-54.27349
2017-10-05 13:00:00+00:00,229.0,233.0,11.29,13.79,13.3,47.59359,-54.27349
2017-10-05 13:10:00+00:00,227.0,232.0,10.47,12.21,13.1,47.59359,-54.27349
2017-10-05 13:20:00+00:00,226.0,221.0,9.74,10.89,13.4,47.59359,-54.27349
2017-10-05 13:30:00+00:00,226.0,227.0,9.85,11.26,13.4,47.59359,-54.27349
2017-10-05 13:40:00+00:00,228.0,226.0,11.32,13.07,13.4,47.59359,-54.27349
2017-10-05 13:50:00+00:00,225.0,230.0,11.49,13.68,13.4,47.59359,-54.27349
2017-10-05 14:00:00+00:00,224.0,222.0,11.64,13.08,13.3,47.59359,-54.27349
2017-10-05 14:10:00+00:00,223.0,229.0,10.91,12.52,13.3,47.59359,-54.27349
2017-10-05 14:20:00+00:00,229.0,239.0,8.93,10.4,13.4,47.59359,-54.27349
2017-10-05 14:30:00+00:00,230.0,231.0,7.95,8.91,13.4,47.59359,-54.27349
2017-10-05 14:40:00+00:00,228.0,228.0,8.97,10.32,13.4,47.59359,-54.27349
2017-10-05 14:50:00+00:00,235.0,223.0,6.73,8.73,13.3,47.59359,-54.27349
2017-10-05 15:00:00+00:00,243.0,242.0,8.66,11.41,13.3,47.59359,-54.27349
2017-10-05 15:10:00+00:00,241.0,239.0,9.17,11.1,13.4,47.59359,-54.27349
2017-10-05 15:20:00+00:00,234.0,232.0,8.54,10.38,13.7,47.59359,-54.27349
2017-10-05 15:30:00+00:00,240.0,249.0,8.68,13.3,13.6,47.59359,-54.27349
2017-10-05 15:40:00+00:00,244.0,239.0,6.73,8.38,13.8,47.59359,-54.27349
2017-10-05 15:50:00+00:00,247.0,241.0,8.7,10.21,13.7,47.59359,-54.27349
2017-10-05 16:00:00+00:00,245.0,251.0,9.2,11.3,14.2,47.59359,-54.27349
2017-10-05 16:10:00+00:00,238.0,238.0,7.67,9.18,13.8,47.59359,-54.27349
2017-10-05 16:20:00+00:00,242.0,236.0,8.64,10.45,13.8,47.59359,-54.27349
2017-10-05 16:30:00+00:00,232.0,235.0,8.56,9.74,13.9,47.59359,-54.27349
2017-10-05 16:40:00+00:00,232.0,234.0,9.14,10.34,13.7,47.59359,-54.27349
2017-10-05 16:50:00+00:00,229.0,236.0,8.03,9.11,13.9,47.59359,-54.27349
2017-10-05 17:00:00+00:00,232.0,233.0,8.1,9.51,13.8,47.59359,-54.27349
2017-10-05 17:10:00+00:00,227.0,231.0,8.32,9.37,13.7,47.59359,-54.27349
2017-10-05 17:20:00+00:00,225.0,218.0,8.44,9.63,13.8,47.59359,-54.27349
2017-10-05 17:30:00+00:00,224.0,222.0,7.93,9.06,13.8,47.59359,-54.27349
2017-10-05 17:40:00+00:00,218.0,219.0,7.71,8.33,13.8,47.59359,-54.27349
2017-10-05 17:50:00+00:00,232.0,233.0,6.52,7.88,13.8,47.59359,-54.27349
2017-10-05 18:00:00+00:00,231.0,234.0,6.74,8.8,13.7,47.59359,-54.27349
2017-10-05 18:10:00+00:00,238.0,240.0,6.77,8.56,13.5,47.59359,-54.27349
2017-10-05 18:20:00+00:00,249.0,251.0,8.9,10.37,13.7,47.59359,-54.27349
2017-10-05 18:30:00+00:00,250.0,249.0,7.66,9.07,13.7,47.59359,-54.27349
2017-10-05 18:40:00+00:00,267.0,262.0,8.61,9.57,13.8,47.59359,-54.27349
2017-10-05 18:50:00+00:00,263.0,267.0,8.98,11.94,13.9,47.59359,-54.27349
2017-10-05 19:00:00+00:00,258.0,263.0,9.43,11.01,14.0,47.59359,-54.27349
2017-10-05 19:10:00+00:00,266.0,268.0,7.89,9.15,13.7,47.59359,-54.27349
2017-10-05 19:20:00+00:00,257.0,259.0,7.7,9.54,13.7,47.59359,-54.27349
2017-10-05 19:30:00+00:00,253.0,258.0,7.5,11.17,13.5,47.59359,-54.27349
2017-10-05 19:40:00+00:00,255.0,255.0,7.72,8.62,13.5,47.59359,-54.27349
2017-10-05 19:50:00+00:00,262.0,269.0,7.46,9.83,13.5,47.59359,-54.27349
2017-10-05 20:00:00+00:00,262.0,270.0,6.66,8.75,13.4,47.59359,-54.27349
2017-10-05 20:10:00+00:00,268.0,276.0,6.4,7.8,13.3,47.59359,-54.27349
2017-10-05 20:20:00+00:00,272.0,279.0,6.76,8.23,13.2,47.59359,-54.27349
2017-10-05 20:30:00+00:00,272.0,277.0,7.4,10.44,13.1,47.59359,-54.27349
2017-10-05 20:40:00+00:00,271.0,277.0,9.86,11.6,13.0,47.59359,-54.27349
2017-10-05 20:50:00+00:00,276.0,270.0,9.93,11.32,13.0,47.59359,-54.27349
2017-10-05 21:00:00+00:00,278.0,284.0,9.11,10.06,13.0,47.59359,-54.27349
2017-10-05 21:10:00+00:00,280.0,289.0,10.27,12.21,12.8,47.59359,-54.27349
2017-10-05 21:20:00+00:00,282.0,280.0,9.66,10.51,12.8,47.59359,-54.27349
2017-10-05 21:30:00+00:00,272.0,275.0,9.21,10.41,12.8,47.59359,-54.27349
2017-10-05 21:40:00+00:00,264.0,266.0,7.86,8.71,12.8,47.59359,-54.27349
2017-10-05 21:50:00+00:00,257.0,261.0,7.15,7.87,12.8,47.59359,-54.27349
2017-10-05 22:00:00+00:00,259.0,262.0,7.27,8.28,12.7,47.59359,-54.27349
2017-10-05 22:10:00+00:00,253.0,252.0,5.62,7.35,12.6,47.59359,-54.27349
2017-10-05 22:20:00+00:00,259.0,257.0,6.19,7.22,12.7,47.59359,-54.27349
2017-10-05 22:30:00+00:00,251.0,253.0,6.18,7.36,12.7,47.59359,-54.27349
2017-10-05 22:40:00+00:00,251.0,258.0,7.02,8.2,12.8,47.59359,-54.27349
2017-10-05 22:50:00+00:00,249.0,251.0,6.4,7.08,12.8,47.59359,-54.27349
2017-10-05 23:00:00+00:00,259.0,256.0,6.45,7.18,12.7,47.59359,-54.27349
2017-10-05 23:10:00+00:00,274.0,272.0,9.67,11.12,12.6,47.59359,-54.27349
2017-10-05 23:20:00+00:00,275.0,274.0,7.55,8.98,12.7,47.59359,-54.27349
2017-10-05 23:30:00+00:00,277.0,275.0,7.67,8.61,12.7,47.59359,-54.27349
2017-10-05 23:40:00+00:00,249.0,250.0,5.06,6.06,12.7,47.59359,-54.27349
2017-10-05 23:50:00+00:00,247.0,250.0,6.51,7.22,12.7,47.59359,-54.27349
